Regional Weather Roundup
Issued by NWS

Home | Current Version | Previous Version | Graphics & Text | Print | Product List | Glossary On
Versions: 1 2 3 4 5 6 7 8 9 10 11 12 13 14 15 16 17 18 19 20 21 22 23 24 25 26 27
000
ASUS45 KPSR 281210
RWRAZ

ARIZONA HOURLY REGIONAL WEATHER ROUNDUP
NATIONAL WEATHER SERVICE PHOENIX AZ
500 AM MST SUN AUG 28 2016

NOTE: FAIR INDICATES FEW OR NO CLOUDS BELOW 12,000 FEET WITH NO
SIGNIFICANT WEATHER AND/OR OBSTRUCTIONS TO VISIBILITY.

AZZ001>003-036-281300-
NORTHWEST ARIZONA

CITY           SKY/WX    TMP DP  RH WIND       PRES   REMARKS
BULLHEAD CITY  CLEAR     73  63  68 CALM      29.94R
KINGMAN        CLEAR     60  55  83 CALM      30.11R
6HR MIN TEMP:  59; 6HR MAX TEMP:  66;

$$

AZZ004>008-015-016-018-281300-
NORTH CENTRAL ARIZONA

CITY           SKY/WX    TMP DP  RH WIND       PRES   REMARKS
GRAND CANYON   CLEAR     47  44  90 NE5       30.29R
6HR MIN TEMP:  45; 6HR MAX TEMP:  53; 6HR PCP: TRACE;

PRESCOTT       PTCLDY    57  51  80 SW3       30.19S
6HR MIN TEMP:  56; 6HR MAX TEMP:  60; 6HR PCP: TRACE;

FLAGSTAFF      CLOUDY    48  46  93 CALM      30.30R
6HR MIN TEMP:  47; 6HR MAX TEMP:  50;

PAYSON         MOCLDY    57  46  67 CALM      30.21S
PAGE           PTCLDY    62  53  72 CALM      30.17R
6HR MIN TEMP:  62; 6HR MAX TEMP:  67;

$$

AZZ009>014-017-281300-
NORTHEAST ARIZONA

CITY           SKY/WX    TMP DP  RH WIND       PRES   REMARKS
WINSLOW        MOCLDY    54  51  90 CALM      30.21R
6HR MIN TEMP:  52; 6HR MAX TEMP:  61;

SAINT JOHNS    MOCLDY    51  49  92 SE5       30.24R
6HR MIN TEMP:  51; 6HR MAX TEMP:  57;

SHOW LOW       MOCLDY    48  45  87 CALM      30.28R
$$

AZZ023-281300-
GREATER PHOENIX AREA

CITY           SKY/WX    TMP DP  RH WIND       PRES   REMARKS
PHOENIX        CLEAR     80  53  39 W3        29.92R
6HR MIN TEMP:  80; 6HR MAX TEMP:  92;

BUCKEYE        CLEAR     72  41  33 N3        29.94R
LUKE AFB       CLEAR     74  54  50 N5        29.92R
6HR MIN TEMP:  74; 6HR MAX TEMP:  85;

DEER VALLEY    CLEAR     75  51  43 N9        29.94R
6HR MIN TEMP:  74; 6HR MAX TEMP:  82;

SCOTTSDALE     CLEAR     75  51  43 NW3       29.96R
6HR MIN TEMP:  75; 6HR MAX TEMP:  83;

MESA-GATEWAY   PTCLDY    72  52  49 E5        29.96R
$$

AZZ027-028-281300-
SOUTHWEST MARICOPA COUNTY AND PINAL COUNTY

CITY           SKY/WX    TMP DP  RH WIND       PRES   REMARKS
CASA GRANDE    CLEAR     72  39  30 CALM      29.97R
6HR MIN TEMP:  72; 6HR MAX TEMP:  84;

GILA BEND      FAIR      73  35  25 E7        29.91R
6HR MIN TEMP:  71; 6HR MAX TEMP:  84;

$$

AZZ503-504-507>509-281300-
SOUTHEAST ARIZONA

CITY           SKY/WX    TMP DP  RH WIND       PRES   REMARKS
TUCSON         CLEAR     68  43  40 SE7       30.05R
6HR MIN TEMP:  68; 6HR MAX TEMP:  78;

DAVIS-MONTHAN  CLEAR     65  46  49 SE7       30.03R
6HR MIN TEMP:  65; 6HR MAX TEMP:  75;

NOGALES        CLEAR     56  42  59 CALM      30.12R
6HR MIN TEMP:  56; 6HR MAX TEMP:  68;

SIERRA VISTA   CLEAR     65  35  33 W10       30.16R
6HR MIN TEMP:  63; 6HR MAX TEMP:  71;

DOUGLAS        PTCLDY    59  46  62 CALM      30.12R
6HR MIN TEMP:  57; 6HR MAX TEMP:  69;

SAFFORD        CLOUDY    65  46  50 NW7       30.06R
6HR MIN TEMP:  63; 6HR MAX TEMP:  73;

$$

AZZ020-021-025-026-031-281300-
SOUTHWEST ARIZONA

CITY           SKY/WX    TMP DP  RH WIND       PRES   REMARKS
YUMA           CLEAR     78  43  28 CALM      29.87R
6HR MIN TEMP:  77; 6HR MAX TEMP:  85;

$$

CAZ031-033-041-043-047-048-061-281300-
SOUTHERN CALIFORNIA

CITY           SKY/WX    TMP DP  RH WIND       PRES   REMARKS
DOWNTOWN L.A.  CLEAR     64  59  83 CALM      29.98S
6HR MIN TEMP:  63; 6HR MAX TEMP:  66;

L.A. AIRPORT   CLEAR     63  59  87 E3        29.99R
6HR MIN TEMP:  63; 6HR MAX TEMP:  66;

SAN DIEGO      CLOUDY    69  61  75 N7        29.99S
6HR MIN TEMP:  69; 6HR MAX TEMP:  70;

BURBANK        CLEAR     63  57  81 CALM      29.99S
6HR MIN TEMP:  63; 6HR MAX TEMP:  67;

ONTARIO        CLEAR     63  56  78 CALM      29.99F
6HR MIN TEMP:  62; 6HR MAX TEMP:  67;

RIVERSIDE      CLEAR     64  57  78 CALM      30.00S
6HR MIN TEMP:  64; 6HR MAX TEMP:  69;

PALM SPRINGS   CLEAR     78  56  46 CALM      29.91R
6HR MIN TEMP:  78; 6HR MAX TEMP:  87;

EL CENTRO NAS  CLEAR     74  58  57 E5        29.87R
6HR MIN TEMP:  74; 6HR MAX TEMP:  87;

IMPERIAL       CLEAR     79  60  52 SE7       29.85R
6HR MIN TEMP:  79; 6HR MAX TEMP:  91;

BLYTHE         CLEAR     76  50  40 NE5       29.89R
6HR MIN TEMP:  76; 6HR MAX TEMP:  87;

NEEDLES        CLEAR     75  66  73 NE12      29.94R
6HR MIN TEMP:  75; 6HR MAX TEMP:  80;

$$

NVZ020-UTZ003-281300-
SOUTHERN NEVADA-UTAH

CITY           SKY/WX    TMP DP  RH WIND       PRES   REMARKS
LAS VEGAS      CLEAR     76  51  41 N5        30.01R
6HR MIN TEMP:  76; 6HR MAX TEMP:  82;

SALT LAKE CITY CLEAR     69  42  37 SE13      30.10R
6HR MIN TEMP:  67; 6HR MAX TEMP:  73;

$$

NMZ009-TXZ055-281300-
NEW MEXICO-WEST TEXAS

CITY           SKY/WX    TMP DP  RH WIND       PRES   REMARKS
ALBUQUERQUE    MOCLDY    59  51  75 N7        30.24R
6HR MIN TEMP:  56; 6HR MAX TEMP:  64;

EL PASO        PTCLDY    67  62  84 CALM      30.13R
6HR MIN TEMP:  67; 6HR MAX TEMP:  71;

$$


........................KEY........................
SKY/WX - SKY CONDITION/WEATHER
TMP    - TEMPERATURE IN FAHRENHEIT
DP     - DEW POINT IN FAHRENHEIT
RH     - RELATIVE HUMIDITY IN PERCENT
WIND   - DIRECTION AND SPEED IN MILES PER HOUR (MPH)
VRB    - VARIABLE WIND DIRECTION
PRES   - MEAN SEA LEVEL PRESSURE IN INCHES OF MERCURY
         F - FALLING PRESSURE   R - RISING PRESSURE
         S - STEADY PRESSURE
VSB    - VISIBILITY IN MILES
HX     - HEAT INDEX IN FAHRENHEIT
WCI    - WIND CHILL INDEX IN FAHRENHEIT
TC     - TEMPERATURE IN CELSIUS WHICH IS ALSO KNOWN AS
         TEMPERATURE IN CENTIGRADE
AFB    - AIR FORCE BASE
         LUKE AFB IS LUKE AIR FORCE BASE
         DAVIS-MONTHAN IS DAVIS-MONTHAN AIR FORCE BASE
NAS    - NAVAL AIR STATION
         EL CENTRO NAS IS EL CENTRO NAVAL AIR STATION
N/A    - NOT AVAILABLE





USA.gov is the U.S. government's official web portal to all federal, state and local government web resources and services.